Location: Ambodifasina
(18.8079°S, 47.5201°E)
Time: 07:33:43
(UTC+00:00)

Daily predictions for brighter satellites

Satellite Brightness Start Highest point End
(mag) Time Altitude Azimuth Time Altitude Azimuth Time Altitude Azimuth
Centaur D-1AR AC-40 3.5 15:20:16 10° W 15:24:58 80° S 15:49:11 10° E
IRS-1C Rocket 4.1 15:50:41 10° SSE 15:55:58 72° ENE 16:01:11 10° N
GPS 2-17 Rocket1 3.2 15:51:29 10° W 15:56:09 76° S 16:00:40 10° E
Feng Yun 1-1 Rocket 4.4 15:51:28 10° S 15:56:57 80° WSW 16:02:19 10° NNW
DMSP B5D2-2 4.3 15:52:59 10° N 15:58:14 79° WNW 16:03:32 10° SSW
Cosmos 44 Rocket 3.5 15:54:46 10° SSW 15:59:22 68° WNW 16:04:02 10° NNE
CZ-4 R/B 1.4 15:58:53 10° SSE 16:03:07 74° ENE 16:07:18 10° N
Cosmos 2058 Rocket 4.0 16:04:43 10° NNW 16:09:07 54° W 16:13:33 10° S
Cosmos 1455 2.1 16:05:18 10° N 16:09:08 76° E 16:13:02 10° S
Atlas Centaur 2 3.6 16:10:08 10° SSW 16:12:02 14° S 16:13:57 10° SE
Cosmos 2150 Rocket 4.0 16:07:30 10° SSW 16:12:46 87° ESE 16:17:55 10° NNE
Aureole 3 Rocket 4.4 16:10:37 10° NNE 16:15:03 35° E 16:21:06 10° SSE
CZ-2C R/B 3.7 16:10:23 10° S 16:15:05 55° WSW 16:19:55 10° NNW
GPS 2-04 Rocket1 2.5 16:14:08 10° SW 16:17:29 58° SSE 16:19:58 17° ENE
Okean-O 2.6 16:13:04 10° SSE 16:17:32 89° WSW 16:21:58 10° NNW
H-2A R/B 1.9 16:13:12 10° SSE 16:18:10 77° ENE 16:23:03 10° N
Cosmos 1943 3.6 16:15:01 10° NNW 16:20:35 68° WSW 16:26:12 10° S
Cosmos 2369 Rocket 3.7 16:17:30 10° SSE 16:21:25 19° ESE 16:24:00 14° E
USA 186 3.3 16:22:21 10° SE 16:24:39 18° E 16:24:39 18° E
Cosmos 1809 Rocket 4.4 16:18:58 10° S 16:25:04 73° E 16:31:07 10° N
CZ-2C R/B 4.2 16:25:29 13° NE 16:29:20 43° ESE 16:33:53 10° S
Cosmos 1825 3.1 16:29:32 10° SSE 16:32:51 28° E 16:33:56 24° ENE
HJ-1C 3.5 16:29:50 10° S 16:33:09 75° WSW 16:36:26 10° NNW
Cosmos 1943 Rocket 2.4 16:31:08 10° S 16:36:30 50° ESE 16:40:01 21° NE
CSL-04 Rocket 3.5 16:33:22 10° SSE 16:38:40 72° ENE 16:43:57 10° N
YAOGAN 1 3.9 16:35:49 10° S 16:39:56 43° WSW 16:44:02 10° NNW
Cosmos 1441 Rocket 3.4 16:36:32 10° S 16:40:12 46° E 16:41:48 28° NE
Cosmos 1408 2.5 16:41:01 10° S 16:44:44 89° ESE 16:47:13 19° N
Helios 1A Rocket 3.9 16:41:57 10° S 16:45:55 48° WSW 16:49:53 10° NNW
SJ-6B 4.1 16:44:56 10° SE 16:46:53 22° ESE 16:46:53 22° ESE
Delta 128 4.3 16:45:31 10° NW 16:49:41 34° NNE 16:50:30 32° NE
Cosmos 405 3.3 16:53:22 44° E 16:53:22 44° E 16:56:32 10° SSE
Cosmos 923 Rocket 4.2 16:51:33 15° N 16:55:37 46° ENE 17:00:38 10° SSE
Meteor 2-16 Rocket 4.4 16:50:45 10° S 16:56:53 70° E 17:01:08 21° NNE
Cosmos 2297 4.4 16:51:43 10° SSW 16:57:11 53° WNW 17:02:17 12° N
Cosmos 1892 4.3 16:54:39 10° SSW 16:58:07 33° W 17:01:33 10° NNW
Meteor 2-15 4.3 16:52:50 10° N 16:58:56 71° E 17:05:03 10° S
Cosmos 158 Rocket 4.0 16:56:21 10° N 17:01:39 63° ENE 17:06:53 10° SSE
MetOp-A 4.2 16:56:52 10° SSE 17:02:07 52° E 17:04:33 30° NNE
Cosmos 1680 Rocket 3.9 17:02:59 39° ENE 17:03:02 39° E 17:07:52 10° SSE
GPS 2-18 Rocket1 3.3 17:02:07 10° W 17:06:03 69° S 17:06:50 52° SE
Cosmos 489 Rocket 4.4 17:04:56 10° NNW 17:11:13 87° WSW 17:17:30 10° SSE
CZ-3B R/B 3.3 17:10:40 10° WSW 17:14:22 47° S 17:22:30 13° ESE
OBJECT-B 3.1 17:13:25 10° SSE 17:14:12 16° SSE 17:14:12 16° SSE
Cosmos 1184 Rocket 3.9 17:19:32 10° SSW 17:21:56 41° SW 17:21:56 41° SW
Cosmos 2151 4.0 17:18:54 10° S 17:21:38 33° SE 17:21:38 33° SE
Cosmos-2242 3.6 17:23:21 31° NNW 17:25:14 56° W 17:29:35 10° S
Cosmos 1656 Rocket 4.2 17:21:44 10° S 17:26:53 43° ESE 17:26:53 43° ESE
Lacrosse 5 rocket 2.2 17:22:47 10° SW 17:27:13 49° WNW 17:27:44 46° NW
Meteor 1-27 4.0 17:26:32 61° NNE 17:27:24 73° E 17:33:00 10° S
Meteor 2-15 Rocket 4.4 17:23:37 20° N 17:28:01 81° W 17:34:12 10° S
CZ-3A R/B 4.5 17:26:57 10° W 17:34:47 36° NNW 17:38:50 29° NNE
Cosmos 2084 Rocket 4.1 17:32:14 10° SW 17:35:41 51° WSW 17:35:41 51° WSW
Cosmos 2263 4.1 17:33:05 10° SSW 17:38:47 77° ESE 17:38:47 77° ESE
GPS 2-17 Rocket1 3.8 17:35:02 10° W 17:38:19 44° WNW 17:38:19 44° WNW
Cosmos 2112 Rocket 4.1 17:41:10 63° SSE 17:41:10 63° SSE 17:45:33 10° SSE
Aurora 2 Rocket 3.4 17:40:13 10° WSW 17:45:31 50° S 17:45:31 50° S
Ariane Rocket 3.2 17:42:06 10° S 17:47:10 67° WSW 17:47:24 66° W
IRS-1A Rocket 4.4 17:41:59 10° S 17:47:44 74° WSW 17:49:09 52° NW
OAO 2 Rocket 4.4 17:56:01 10° SW 18:00:02 41° S 18:00:02 41° S
Atlas Centaur 2 3.8 17:58:00 10° SW 17:59:15 18° SSW 17:59:15 18° SSW
Intelsat 5-3 Rocket 3.9 17:56:15 10° W 18:02:23 43° SW 18:02:23 43° SW
Cosmos 2369 Rocket 3.3 18:00:10 10° SW 18:05:22 37° WNW 18:05:50 36° WNW
H-2A R/B (2) 3.5 18:09:18 10° WNW 18:17:12 32° ESE 18:28:13 10° ESE
H-2A R/B 3.6 17:51:26 10° WSW 18:13:58 44° NW 18:14:18 44° NW
Resurs 01 Rocket 4.5 18:39:11 10° SSW 18:39:53 14° SSW 18:39:53 14° SSW
CZ-4C R/B 3.8 23:12:02 47° E 23:12:02 47° E 23:18:54 10° SE
SL-16 R/B 3.6 23:32:41 10° S 23:36:33 39° S 23:36:33 39° S
Milstar 3 Cent rocket 3.7 23:42:02 26° SSE 23:42:02 26° SSE 23:44:56 10° SE
Cosmos 2333 Rocket 4.0 23:42:24 10° SSW 23:44:19 22° SSW 23:44:19 22° SSW
Cosmos 2219 Rocket 3.7 23:44:50 10° SSW 23:47:23 28° SSW 23:47:23 28° SSW
Cosmos 2016 Rocket 4.2 23:46:12 10° S 23:52:35 67° E 23:52:35 67° E
Cosmos 2227 Rocket 3.2 23:54:51 39° S 23:54:51 39° S 23:58:26 10° S
